"Time","Temp","Dewpoint","Humidity","Pressure","Direction","Speed","Gust","Precip","PrecipRate"
"00:04:57","56","46.7","71","29.94","265","1.7","2.4","0.00","0.00"
"00:09:56","56.1","46.8","71","29.94","265","0.7","2.4","0.00","0.00"
"00:14:58","56.1","46.9","71.2","29.94","265","0","0","0.00","0.00"
"00:19:59","55.8","46.9","72","29.94","265","0","0","0.00","0.00"
"00:24:55","55.5","46.7","72.2","29.94","265","0.5","2.4","0.00","0.00"
"00:29:56","55.3","46.8","73","29.94","265","1.9","2.4","0.00","0.00"
"00:34:56","55.1","46.6","73","29.94","265","0.4","2.4","0.00","0.00"
"00:39:57","55","46.5","73","29.94","265","0","0","0.00","0.00"
"00:44:58","54.7","46.5","73.8","29.94","265","0","0","0.00","0.00"
"00:49:59","54.3","46.2","74.1","29.94","265","0","0","0.00","0.00"
"00:54:59","54","46.3","75","29.94","265","1","2.4","0.00","0.00"
"00:59:59","54.2","46.3","74.8","29.94","265","1.3","2.4","0.00","0.00"
"01:04:56","54.3","46.4","74.7","29.94","265","0.2","1.2","0.00","0.00"
"01:09:59","54.1","46.3","75","29.94","265","0","0","0.00","0.00"
"01:14:56","53.9","46.2","75","29.94","265","0","0","0.00","0.00"
"01:19:57","53.6","46","75.4","29.94","265","0","0","0.00","0.00"
"01:24:58","53.3","45.9","76","29.94","265","0","0","0.00","0.00"
"01:29:59","53.1","45.7","75.8","29.94","265","0","0","0.00","0.00"
"01:34:59","53.2","45.6","75.2","29.94","265","0","0","0.00","0.00"
"01:39:57","53.2","45.8","76","29.94","265","0","0","0.00","0.00"
"01:44:57","52.9","45.9","77","29.94","265","0","0","0.00","0.00"
"01:49:58","52.5","45.5","77","29.94","265","0","0","0.00","0.00"
"01:54:59","52.4","45.3","76.8","29.94","265","0","0","0.00","0.00"
"01:59:59","52.3","45.4","77.2","29.95","265","0","0","0.00","0.00"
"02:04:56","52.2","45.5","78","29.95","265","0","0","0.00","0.00"
"02:09:59","52","45.4","78","29.95","265","0.9","3.6","0.00","0.00"
"02:14:56","52.2","45.2","76.9","29.95","265","2.5","3.6","0.00","0.00"
"02:19:57","52.6","45.1","75.8","29.95","265","0.6","2.4","0.00","0.00"
"02:24:57","52.5","45.2","76","29.95","265","0","1.2","0.00","0.00"
"02:29:57","52.3","45","76","29.95","265","0","0","0.00","0.00"
"02:34:58","52","45","76.9","29.95","265","0","0","0.00","0.00"
"02:39:59","51.8","44.8","77","29.95","265","0","1.2","0.00","0.00"
"02:44:56","51.9","44.7","76.5","29.95","265","0","0","0.00","0.00"
"02:49:56","52.2","44.6","75.2","29.94","265","0.4","2.4","0.00","0.00"
"02:54:56","52.3","44.9","75.6","29.94","265","0.3","2.3","0.00","0.00"
"02:59:59","51.9","44.7","76.2","29.94","265","0.9","2.4","0.00","0.00"
"03:04:56","51.5","44.3","76.5","29.94","265","1","2.4","0.00","0.00"
"03:09:59","51.8","43.6","73.7","29.94","265","2.5","3.6","0.00","0.00"
"03:14:56","52.8","43.6","70.8","29.94","265","3.1","3.6","0.00","0.00"
"03:19:57","53.8","43.7","68.5","29.94","266","2.3","3.6","0.00","0.00"
"03:24:57","53.9","44.9","71.4","29.94","266","0.8","2.4","0.00","0.00"
"03:29:57","53.1","44.5","72.5","29.94","266","0.9","3.6","0.00","0.00"
"03:34:57","52.5","43.9","72.5","29.94","267","1.6","3.6","0.00","0.00"
"03:39:58","52.3","43.9","73.1","29.94","268","0.9","2.4","0.00","0.00"
"03:44:59","52.2","43.5","72.3","29.94","268","0.1","1.2","0.00","0.00"
"03:49:58","52.2","43.3","71.5","29.94","268","0","1.2","0.00","0.00"
"03:54:59","52.4","42.8","69.8","29.94","268","0","0","0.00","0.00"
"03:59:56","52.8","43.1","69.3","29.95","268","0","0","0.00","0.00"
"04:04:58","53","42.9","68.4","29.95","268","0","0","0.00","0.00"
"04:09:57","53.3","43","68","29.95","268","0","1.2","0.00","0.00"
"04:14:59","53.3","43.5","69.3","29.95","268","0","0","0.00","0.00"
"04:19:59","52.9","43.9","71.2","29.95","268","0","0","0.00","0.00"
"04:24:59","52.3","43.5","72","29.95","268","0","0","0.00","0.00"
"04:29:56","51.8","42.8","71.3","29.96","268","0","0","0.00","0.00"
"04:34:56","51.4","43.3","73.9","29.96","268","0","0","0.00","0.00"
"04:39:57","50.9","43.9","76.9","29.96","268","0","0","0.00","0.00"
"04:44:57","50.4","43.5","77.2","29.96","268","0","0","0.00","0.00"
"04:49:57","50.2","43.4","77.6","29.96","268","0","0","0.00","0.00"
"04:54:57","50.1","43.2","76.8","29.96","268","0","0","0.00","0.00"
"04:59:57","50.1","43.2","76.8","29.97","268","0","0","0.00","0.00"
"05:04:57","50","42.9","76.5","29.97","268","1.2","2.4","0.00","0.00"
"05:09:57","50","43","76.8","29.97","268","1.9","3.6","0.00","0.00"
"05:14:57","49.9","43","77","29.97","268","0.6","2.4","0.00","0.00"
"05:19:57","49.8","43","77.4","29.97","268","0","0","0.00","0.00"
"05:24:57","49.5","42.6","77","29.97","268","0","0","0.00","0.00"
"05:29:57","49.3","42.8","78.1","29.98","268","0","0","0.00","0.00"
"05:34:57","49","42.8","78.8","29.98","268","0","0","0.00","0.00"
"05:39:58","48.8","42.6","79.1","29.98","268","0","0","0.00","0.00"
"05:44:58","48.5","42.6","80","29.98","268","0","0","0.00","0.00"
"05:49:58","48.3","42.4","80","29.98","268","0.1","1.2","0.00","0.00"
"05:54:58","48.2","42.4","80.5","29.98","268","0","0","0.00","0.00"
"05:59:58","48.1","42.5","80.8","29.98","268","0","0","0.00","0.00"
"06:04:58","48.1","42.7","81.5","29.98","268","0","0","0.00","0.00"
"06:09:59","47.9","42.3","81","29.98","268","0","0","0.00","0.00"
"06:14:57","47.7","42.3","81.3","29.99","268","0","0","0.00","0.00"
"06:19:57","47.5","42.3","82","29.99","268","0.5","2.4","0.00","0.00"
"06:24:57","47.7","42.5","82","29.99","268","1.5","2.4","0.00","0.00"
"06:29:57","48","42.8","82","29.99","268","0.6","2.4","0.00","0.00"
"06:34:57","47.9","42.7","81.8","29.99","268","0","0","0.00","0.00"
"06:39:57","47.7","42.6","82.2","29.99","268","0","1.2","0.00","0.00"
"06:44:58","47.5","42.6","83","30.00","268","0","1.2","0.00","0.00"
"06:49:58","47.4","42.4","82.8","30.00","268","0","0","0.00","0.00"
"06:54:58","47.2","42.3","83","30.00","268","0","0","0.00","0.00"
"06:59:59","47.2","42.3","83","30.01","268","0.1","1.2","0.00","0.00"
"07:04:59","47.1","42.3","83","30.01","268","0","1.2","0.00","0.00"
"07:09:58","47.2","42.6","84","30.01","268","0","0","0.00","0.00"
"07:14:59","47.4","42.6","83.6","30.01","268","0","0","0.00","0.00"
"07:19:59","47.6","42.7","83","30.01","268","0","0","0.00","0.00"
"07:24:59","47.9","43","83","30.01","268","0","0","0.00","0.00"
"07:29:59","48.3","43.4","83","30.01","268","0","0","0.00","0.00"
"07:34:59","48.6","43.7","83","30.01","268","0","0","0.00","0.00"
"07:39:56","49","43.7","82.1","30.01","268","0","0","0.00","0.00"
"07:44:59","49.7","44.3","81.8","30.02","268","0","0","0.00","0.00"
"07:49:56","50.6","44.9","81","30.02","268","0","0","0.00","0.00"
"07:54:59","51.9","46","80.5","30.02","268","0","0","0.00","0.00"
"07:59:56","53.4","47.4","80.2","30.02","268","0","0","0.00","0.00"
"08:04:56","54.7","47.8","77.6","30.02","268","0","0","0.00","0.00"
"08:09:56","56.1","47.9","74.1","30.02","268","0","0","0.00","0.00"
"08:14:57","57.5","49.4","74.3","30.02","268","0","0","0.00","0.00"
"08:19:56","58.6","49.9","72.8","30.01","268","0","0","0.00","0.00"
"08:24:56","59.9","51.1","72.8","30.01","268","0","0","0.00","0.00"
"08:29:56","61.3","51.8","71.1","30.01","268","0","0","0.00","0.00"
"08:34:56","62.7","51.4","66.5","30.01","268","0","0","0.00","0.00"
"08:39:56","64.7","49.7","58.5","30.01","268","0","0","0.00","0.00"
"08:44:57","66.4","49.4","54.4","30.01","268","0","0","0.00","0.00"
"08:49:57","67.7","51.2","55.5","30.01","264","0.3","3.6","0.00","0.00"
"08:54:56","69","50.2","51.2","30.01","264","0.4","3.5","0.00","0.00"
"08:59:56","70.4","49.2","47","30.02","264","0.5","2.4","0.00","0.00"
"09:04:56","71.3","49.6","46.2","30.02","264","0.3","2.4","0.00","0.00"
"09:09:59","72","48.2","42.9","30.02","289","1.7","4.8","0.00","0.00"
"09:14:56","72.4","48.6","43","30.02","331","0.9","3.6","0.00","0.00"
"09:19:59","72.9","48.3","41.8","30.02","331","0.6","3.6","0.00","0.00"
"09:24:59","73.6","49.1","41.9","30.02","331","0.6","2.4","0.00","0.00"
"09:29:58","74.4","49","40.7","30.02","275","0.6","4.8","0.00","0.00"
"09:34:58","75","49.9","41.3","30.01","213","2.7","4.8","0.00","0.00"
"09:39:59","75.5","47.9","37.8","30.01","216","1.9","8.4","0.00","0.00"
"09:44:58","75.9","47.5","36.7","30.02","314","3.4","8.1","0.00","0.00"
"09:49:56","75.8","47.3","36.5","30.02","231","2.8","6.9","0.00","0.00"
"09:54:56","76.2","48.4","37.6","30.02","241","3.1","7.2","0.00","0.00"
"09:59:59","76.6","47.9","36.4","30.02","306","3.7","9.6","0.00","0.00"
"10:04:59","76.9","49","37.6","30.01","281","3.4","8.4","0.00","0.00"
"10:09:57","76.9","47.6","35.5","30.01","316","3.7","12","0.00","0.00"
"10:14:59","77","48.1","36.3","30.01","325","3.4","9.6","0.00","0.00"
"10:19:56","76.9","47.8","35.8","30.01","294","3.6","12","0.00","0.00"
"10:24:56","77.2","49.9","38.4","30.01","293","3.1","8.4","0.00","0.00"
"10:29:59","77.5","49.2","37.1","30.01","308","3.7","8.4","0.00","0.00"
"10:34:58","77.9","48.9","36.3","30.01","311","4.5","13.2","0.00","0.00"
"10:39:58","77.7","49.1","36.7","30.01","297","4.1","8.4","0.00","0.00"
"10:44:58","78.2","49.8","37","30.01","297","3.8","7.2","0.00","0.00"
"10:49:57","78.5","50.2","37.2","30.01","257","3.7","10.8","0.00","0.00"
"10:54:57","78.4","49.7","36.6","30.01","276","4.1","9.6","0.00","0.00"
"10:59:56","78.5","49.6","36.4","30.01","309","3.4","8.4","0.00","0.00"
"11:04:57","79","50.1","36.5","30.01","326","3.7","8.4","0.00","0.00"
"11:09:58","79.6","50.6","36.4","30.01","294","3.4","10.8","0.00","0.00"
"11:14:59","79.5","50.7","36.7","30.01","316","5.1","10.8","0.00","0.00"
"11:19:56","79.7","51.5","37.5","30.01","235","5","10.8","0.00","0.00"
"11:24:57","79.8","51.8","37.9","30.01","282","3.6","8.4","0.00","0.00"
"11:29:57","79.7","50.3","35.9","30.01","227","2.7","8.4","0.00","0.00"
"11:34:59","79.9","50.9","36.5","30.00","273","3.3","8.4","0.00","0.00"
"11:39:57","80.3","52.5","38.2","30.00","228","2.4","8.4","0.00","0.00"
"11:44:57","80.4","50.9","35.9","30.00","284","2.9","6","0.00","0.00"
"11:49:58","79.9","50.9","36.4","30.00","320","3.1","6","0.00","0.00"
"11:54:59","80.1","49.4","34.3","30.00","274","2.9","7.2","0.00","0.00"
"11:59:59","80.5","49.7","34.2","30.00","279","4.4","10.8","0.00","0.00"
"12:04:57","80.6","49.7","34.2","30.00","332","5.1","13.2","0.00","0.00"
"12:09:58","80.2","49","33.8","30.00","311","2.1","5.8","0.00","0.00"
"12:14:59","80.9","52.4","37.5","30.00","327","1.7","4.8","0.00","0.00"
"12:19:56","82","51.7","35.1","29.99","328","3.5","8.4","0.00","0.00"
"12:24:56","81.5","48.6","31.9","29.99","308","4.4","12","0.00","0.00"
"12:29:57","81.9","50.6","33.9","29.99","267","3.1","9.2","0.00","0.00"
"12:34:58","82.1","50.2","33.2","29.99","307","3.3","8.4","0.00","0.00"
"12:39:59","82.1","49.8","32.7","29.99","214","2.9","6","0.00","0.00"
"12:44:55","82.6","52.1","35","29.99","244","3.2","7.2","0.00","0.00"
"12:49:56","82.8","53.4","36.4","29.98","199","2.4","4.8","0.00","0.00"
"12:54:57","83.2","52.8","35.2","29.98","257","2.6","7.2","0.00","0.00"
"12:59:58","82.5","49.3","31.7","29.98","277","2.8","8.4","0.00","0.00"
"13:04:59","82.6","49.8","32.1","29.98","227","3.8","8.4","0.00","0.00"
"13:09:56","83.3","51.8","34.1","29.98","335","1.5","7.2","0.00","0.00"
"13:14:58","83.5","50.9","32.7","29.98","240","3.3","7.2","0.00","0.00"
"13:19:59","83.1","48.5","30.2","29.97","222","2.5","6.9","0.00","0.00"
"13:24:56","84","51.9","33.2","29.97","240","3.2","7.2","0.00","0.00"
"13:29:56","84.4","50.4","31","29.97","246","2.8","7.2","0.00","0.00"
"13:34:57","83.6","48.7","29.9","29.96","286","5.3","15.6","0.00","0.00"
"13:39:59","83.8","49.8","31","29.96","237","5.2","16.1","0.00","0.00"
"13:44:56","83.7","50.4","31.8","29.96","200","2.7","12","0.00","0.00"
"13:49:57","83.7","49.2","30.2","29.96","274","4.6","12","0.00","0.00"
"13:54:58","83.9","49.5","30.5","29.96","216","2.9","7.2","0.00","0.00"
"13:59:59","84","48.7","29.6","29.96","217","2.3","7.2","0.00","0.00"
"14:04:57","83.9","48.8","29.7","29.95","256","3.5","7.2","0.00","0.00"
"14:09:57","84.4","52.5","33.6","29.95","203","2.2","7.2","0.00","0.00"
"14:14:59","85","50.2","30.2","29.95","233","3.7","10.8","0.00","0.00"
"14:19:56","84.8","48.6","28.6","29.95","316","3.3","7.2","0.00","0.00"
"14:24:57","85.6","49.6","28.9","29.95","259","3.6","7.2","0.00","0.00"
"14:29:58","85.9","51.5","30.7","29.95","243","4.3","8.4","0.00","0.00"
"14:34:58","85.2","49.4","29.1","29.94","302","3","6","0.00","0.00"
"14:39:56","85.6","52.6","32.5","29.94","306","1.1","4.8","0.00","0.00"
"14:44:57","85.9","50.1","29.3","29.94","334","2.6","7.2","0.00","0.00"
"14:49:58","85.8","50.1","29.4","29.93","237","2.4","4.8","0.00","0.00"
"14:54:59","85.9","52","31.3","29.93","183","2","4.8","0.00","0.00"
"14:59:56","86.4","51.2","30","29.93","167","3.8","8.4","0.00","0.00"
"15:04:57","86.8","52","30.6","29.93","203","3.9","9.6","0.00","0.00"
"15:09:58","87.2","52","30.1","29.93","203","4.6","10.8","0.00","0.00"
"15:14:56","86.6","48","26.4","29.93","183","5.1","10.4","0.00","0.00"
"15:19:56","86.5","49.9","28.5","29.92","221","5.6","12","0.00","0.00"
"15:24:57","87","50","28.2","29.92","173","4.5","10.4","0.00","0.00"
"15:29:58","86.8","50","28.2","29.92","217","4.3","7.2","0.00","0.00"
"15:34:59","86.9","52","30.4","29.91","200","2.8","7.2","0.00","0.00"
"15:39:56","87.2","49.4","27.4","29.91","209","4.4","10.8","0.00","0.00"
"15:44:56","86.9","49.9","28.2","29.91","203","5","13.2","0.00","0.00"
"15:49:57","86.7","50.2","28.6","29.91","217","7.8","16.1","0.00","0.00"
"15:54:58","86.7","51.1","29.6","29.91","229","4.5","7.2","0.00","0.00"
"15:59:58","87.1","51","29","29.91","210","5.3","13.2","0.00","0.00"
"16:04:56","87.1","49.8","27.8","29.90","215","4.5","8.4","0.00","0.00"
"16:09:57","87.4","50.5","28.3","29.90","210","4.5","7.2","0.00","0.00"
"16:14:58","87.2","49.4","27.4","29.90","197","4.7","9.6","0.00","0.00"
"16:19:55","86.9","49.1","27.3","29.90","234","4.9","7.2","0.00","0.00"
"16:24:56","86.7","49","27.3","29.90","224","5.7","10.8","0.00","0.00"
"16:29:57","86.9","49.8","27.9","29.90","213","5.2","8.4","0.00","0.00"
"16:34:57","86.7","48","26.3","29.89","192","4.7","10.8","0.00","0.00"
"16:39:59","86.7","48.1","26.4","29.89","206","4.3","8.4","0.00","0.00"
"16:44:56","86.9","48.7","26.8","29.89","181","4.9","12","0.00","0.00"
"16:49:57","87","50","28.1","29.88","181","4.5","12","0.00","0.00"
"16:54:58","86.9","49","27.1","29.88","180","3.7","12","0.00","0.00"
"16:59:58","86.8","48.9","27.1","29.88","186","5.6","12","0.00","0.00"
"17:04:59","86.9","48.9","27.1","29.88","208","5.6","12","0.00","0.00"
"17:09:59","86.9","48.2","26.4","29.88","199","5.6","10.8","0.00","0.00"
"17:14:57","87","49.2","27.3","29.88","213","4.4","8.4","0.00","0.00"
"17:19:58","87.2","49.3","27.2","29.88","191","5","12","0.00","0.00"
"17:24:58","87.3","47.5","25.3","29.88","170","4.3","11.5","0.00","0.00"
"17:29:59","87.3","48.2","26.1","29.88","186","5.3","12","0.00","0.00"
"17:34:59","87.2","48.6","26.5","29.88","211","4.4","8.4","0.00","0.00"
"17:39:56","87.1","48.4","26.4","29.88","189","5.4","12","0.00","0.00"
"17:44:57","86.9","47.8","25.8","29.88","210","4.5","8.4","0.00","0.00"
"17:49:57","86.8","49.4","27.6","29.88","209","4.7","10.8","0.00","0.00"
"17:54:57","86.7","48","26.2","29.88","192","6.2","13.2","0.00","0.00"
"17:59:58","86.5","47.7","26.2","29.88","211","5.2","8.4","0.00","0.00"
"18:04:59","86.3","47.8","26.4","29.88","183","4.8","10.8","0.00","0.00"
"18:09:56","85.9","46.6","25.6","29.88","211","5.1","12","0.00","0.00"
"18:14:58","85.5","47.5","26.8","29.88","192","3.8","7.2","0.00","0.00"
"18:19:56","85.3","47.1","26.7","29.88","178","3.6","7.2","0.00","0.00"
"18:24:57","84.8","46.7","26.6","29.88","187","4.6","12","0.00","0.00"
"18:29:57","84.6","46.1","26.3","29.88","194","4.3","9.2","0.00","0.00"
"18:34:58","84.4","46.5","26.8","29.88","193","4","8.4","0.00","0.00"
"18:39:56","84.1","46.5","27","29.88","203","5.2","12","0.00","0.00"
"18:44:57","83.7","45.7","26.5","29.88","185","4.7","13.2","0.00","0.00"
"18:49:58","83.5","45.2","26.2","29.88","190","5.3","12.7","0.00","0.00"
"18:54:58","83.3","45.5","26.7","29.88","188","4.7","9.6","0.00","0.00"
"18:59:58","83","45.6","27","29.88","191","4.2","13.2","0.00","0.00"
"19:04:56","82.5","44.9","26.8","29.88","208","3.8","11.5","0.00","0.00"
"19:09:57","82.2","45.2","27.3","29.88","181","3.3","6","0.00","0.00"
"19:14:58","81.8","44.5","27","29.88","197","4.2","12","0.00","0.00"
"19:19:56","81.4","45.2","28","29.88","173","2.7","4.8","0.00","0.00"
"19:24:57","81","45.1","28.3","29.88","178","2.3","4.8","0.00","0.00"
"19:29:59","80.6","44.8","28.4","29.88","209","3","7.2","0.00","0.00"
"19:34:56","80.2","44.8","28.7","29.88","210","2.7","4.8","0.00","0.00"
"19:39:58","79.8","44.5","28.7","29.88","181","2.9","6","0.00","0.00"
"19:44:56","79.5","44.1","28.6","29.88","166","1.3","3.6","0.00","0.00"
"19:49:58","79.4","43.4","28","29.88","166","1.4","2.4","0.00","0.00"
"19:54:56","79.3","44.2","29","29.88","166","0.5","2.4","0.00","0.00"
"19:59:58","78.9","44.1","29.2","29.88","166","0.2","2.3","0.00","0.00"
"20:04:58","78.4","44.3","29.9","29.88","166","0.1","1.2","0.00","0.00"
"20:09:57","77.8","45.9","32.4","29.88","166","0","0","0.00","0.00"
"20:14:58","76.8","46.9","34.8","29.88","166","0","0","0.00","0.00"
"20:19:59","75.8","46.2","35.1","29.88","166","0","0","0.00","0.00"
"20:24:59","74.8","47","37.4","29.88","166","0.2","1.2","0.00","0.00"
"20:29:56","73.8","46.7","38.2","29.88","166","0","0","0.00","0.00"
"20:34:57","73","45.5","37.4","29.88","166","0","1.2","0.00","0.00"
"20:39:57","72.5","45.6","38.3","29.88","166","0","1.2","0.00","0.00"
"20:44:58","71.9","45.5","38.8","29.89","166","0","0","0.00","0.00"
"20:49:58","71.1","46.3","41.1","29.89","166","0","0","0.00","0.00"
"20:54:59","70.4","46.4","42.4","29.89","166","0","0","0.00","0.00"
"20:59:59","69.7","46.7","43.8","29.89","166","0","0","0.00","0.00"
"21:04:59","69.1","46.2","44","29.89","166","0","0","0.00","0.00"
"21:09:59","68.4","46.1","44.8","29.89","166","0","0","0.00","0.00"
"21:14:59","67.8","46.1","45.7","29.89","166","0","0","0.00","0.00"
"21:19:59","67.3","46.5","47.2","29.89","166","0","0","0.00","0.00"
"21:24:59","66.8","46.8","48.5","29.89","166","0","0","0.00","0.00"
"21:29:59","66.3","46.9","49.7","29.89","166","0","0","0.00","0.00"
"21:34:58","65.7","47.6","52","29.89","166","0","0","0.00","0.00"
"21:39:59","65","47.3","52.6","29.89","166","0","0","0.00","0.00"
"21:44:59","64.4","46.9","53","29.90","166","0","0","0.00","0.00"
"21:49:59","64","46.8","53.6","29.90","166","0","0","0.00","0.00"
"21:54:59","63.8","47.3","55.1","29.90","166","0","0","0.00","0.00"
"21:59:59","63.5","48","56.9","29.90","166","0","0","0.00","0.00"
"22:04:59","63.1","48.1","58","29.90","166","0","0","0.00","0.00"
"22:09:59","62.7","48","58.7","29.90","166","0","0","0.00","0.00"
"22:14:56","62.3","47.6","58.7","29.90","166","0","0","0.00","0.00"
"22:19:56","62","47","58.1","29.90","166","0","0","0.00","0.00"
"22:24:58","61.7","47.6","59.8","29.90","166","0","0","0.00","0.00"
"22:29:59","61.4","48.1","61.5","29.90","166","0","0","0.00","0.00"
"22:34:59","61.1","47.7","61.5","29.90","166","0","0","0.00","0.00"
"22:39:57","60.9","47.4","61","29.90","166","0","0","0.00","0.00"
"22:44:57","60.7","47.7","62.1","29.90","166","0","0","0.00","0.00"
"22:49:57","60.5","48.1","63.5","29.90","166","0.1","1.2","0.00","0.00"
"22:54:58","60.3","47.5","62.8","29.90","166","0.1","1.2","0.00","0.00"
"22:59:58","60","47.2","62.7","29.90","166","0.1","1.2","0.00","0.00"
"23:04:58","59.8","47.2","63","29.90","166","0","1.2","0.00","0.00"
"23:09:57","59.7","47","62.7","29.90","166","0","0","0.00","0.00"
"23:14:57","59.6","47.6","64.5","29.90","166","0","1.2","0.00","0.00"
"23:19:57","59.5","47.6","65","29.90","166","0","0","0.00","0.00"
"23:24:56","59.3","47.4","64.8","29.90","166","0","0","0.00","0.00"
"23:29:57","59.2","47.7","65.7","29.90","166","0","0","0.00","0.00"
"23:34:57","59","47.4","65.5","29.90","166","0","1.2","0.00","0.00"
"23:39:57","59","47.1","64.9","29.90","166","0.1","1.2","0.00","0.00"
"23:44:56","59.1","47.3","64.9","29.90","166","0","1.2","0.00","0.00"
"23:49:56","59.2","47.4","65","29.90","166","0","0","0.00","0.00"
"23:54:59","59.3","46.9","63.6","29.90","166","0.1","1.2","0.00","0.00"
